Location: Bourg-d�Oueil
(42.8588°N, 0.4991°E)
Time: 20:25:30
(UTC+00:00)

Meteor 2-11 Rocket - Pass Details

Date: 16 June 2021
Orbit: 938 x 958 km, 82.5° (Epoch: 23 July)

Event Time Altitude Azimuth Distance (km) Brightness Sun altitude
Rises 21:20:53 0° 354° (N) 3,632 8.6 -14.4°
Reaches altitude 10° 21:23:26 10° 357° (N) 2,680 7.7 -14.7°
Maximum altitude 21:29:31 66° 79° (E) 1,026 4.5 -15.4°
Enters shadow 21:33:25 23° 157° (SSE) 1,890 5.4 -15.8°
